SL-14 DEB, 45288

Orbit data source: Space-Track

SL-14 DEB, 45288 is space debris in LEO originally from a launch on Thu, 15 Aug 1991 UTC launched from the Plesetsk Missile And Space Complex (PKMTR). Debris objects in space refer to the collection of defunct objects orbiting the Earth. Examples of debris include non-operational satellites, rocket bodies, and fragments generated from explosions, collisions, or faulty payload assembly.

Loading next visibility...
Identifier
45288, 1991-056AA
Orbit
LEO
Last TLE update
1 day ago
Origin
Manufacturer
Unknown
Mission
Spacecraft
Bus & Motor
Unknown
Mass
Unknown
Launch date (UTC)
1991-08-15 (34 years ago)
Launch vehicle
Unknown
Launch site
Plesetsk Missile And Space Complex (PKMTR)
Object type
Payload
Rocket body
Debris
Shape & HBR
Unknown
Radar Cross Section
Small (<0.1 m²)

Expand to show TLE details & history

TLE from 1 day ago
0 SL-14 DEB
1 45288U 91056AA  25128.07709999  .00003487  00000-0  11384-1 0  9996
2 45288  82.6221 159.1717 0289033 118.2898 244.7696 12.87994755244154
Epoch: 2025-05-08T01:51Z
Definitive object data (Epoch: 2025-05-08T01:51:01.439Z)
Latitude
-0.00003°
Longitude
-94.73708°
Altitude
1,412.156 km
Speed
7.108 km/s
True Right ascension
10h 36m 41s
True Declination
0° 00' 00"
Sunlit
Object was in daylight at TLE epoch
Visualization TLE readout
Latitude
-4.25406°
Longitude
85.01065°
Altitude
1,226.742 km
Speed
7.281 km/s
Apparent Right ascension
00h 13m 33s
Apparent Declination
-23° 28' 55"
Sunlit
Object is in daylight
Visualization observer readout
Local Sidereal Time
14:53:06
Azimuth
76.063° E
Elevation
-52.698°
Doppler factor
1
Orbital elements
Apogee altitude
1,528.891 km
Perigee altitude
1,084.653 km
Semi-major axis
7,684.909 km
Eccentricity
0.0289033
Inclination
82.6221°
RAAN
159.1717°
Arg. of periapsis
118.2898°
True anomaly
241.82026°
Mean anomaly
244.7696°
Eccentric anomaly
243.29027°
Mean motion
3.2217 °/min
BSTAR
0.011384
Orbital period
111.74 mins
Loading maneuver chart data...
Loading SW <> Apogee altitude chart data...
Loading historical data...
Loading historical data...
Loading historical data...
Loading historical data...
Loading historical data...
Loading historical data...
Loading historical data...

SL-14 DEB Visibility forecast

Observer location: undefined°, undefined°

Span
Click to sort rows by Start time (UTC) header in descending order
Start Az.
Max El. time (UTC)
Max El. Az.
Max El.
End time (UTC)
End Az.
5 mins2025-05-09 12:02:13.428Z41.097° NE2025-05-09 12:05:13.428Z68.989° E12.994°2025-05-09 12:07:13.428Z87.102° E
12 mins2025-05-09 13:53:13.428Z352.405° N2025-05-09 13:58:13.428Z340.935° N44.95°2025-05-09 14:05:13.428Z174.902° S
13 mins2025-05-10 02:25:13.428Z177.506° S2025-05-10 02:32:13.428Z65.598° ENE43.886°2025-05-10 02:38:13.428Z11.517° NNE
8 mins2025-05-10 04:21:13.428Z256.95° W2025-05-10 04:25:13.428Z292.809° NW17.973°2025-05-10 04:29:13.428Z329.691° NNW
|